{"data":{"norad_id":60308,"epoch":"2026-09-21T17:08:11.618304Z","epoch_age_seconds":80688,"freshness":"FRESH","line1":"1 60308U 24133H   26264.71402336  .00001295  00000+0  15554-4 0  9996","line2":"2 60308  53.1595 259.7675 0001199  87.5743 272.5412 15.69701407124529","mean_motion":15.69701407,"eccentricity":0.0001199,"inclination_deg":53.1595,"raan_deg":259.7675,"arg_perigee_deg":87.5743,"mean_anomaly_deg":272.5412,"bstar":1.5554e-5,"rev_number":12452,"period_min":91.737192409868,"perigee_km":358.94346759672,"apogee_km":360.55921322075,"semimajor_km":6737.8883404087,"source":"CELESTRAK","updated_at":"2026-09-22T09:00:49.197905Z"}}